Santa Fe, NM

7:02 AM MDT on May 28, 2017 (GMT -0600)
Santa Fe Municipal

Weather History for KSAF - November, 2012

Change the Weather History Date:

Wednesday, November 7, 2012

  Actual Average Record
Temperature  
Mean Temperature 57 °F -  
Max Temperature 68 °F 68 °F 71 °F (1977)
Min Temperature 35 °F 34 °F 19 °F (2000)
Degree Days  
Heating Degree Days 8    
Growing Degree Days 7 (Base 50)    
Moisture  
Dew Point 16 °F    
Average Humidity 22    
Maximum Humidity 42    
Minimum Humidity 13    
Precipitation  
Precipitation 0.00 in - - ()
Sea Level Pressure  
Sea Level Pressure 30.19 in    
Wind  
Wind Speed 8 mph (WNW)    
Max Wind Speed 14 mph    
Max Gust Speed 22 mph    
Visibility 10 miles    
Events      
Averages and records for this station are not official NWS values.
T = Trace of Precipitation, MM = Missing Value Source: NWS Daily Summary

Daily Weather History Graph

Daily Weather History Graph

Search for Another Location

Airport or City:

Trip Planner

Search our weather history database for the weather conditions in past years. The results will help you decide how hot, cold, wet, or windy it might be!

Date:

Astronomy

Nov. 07, 2012 Rise Set
Actual Time 6:32 AM MST 5:03 PM MST
Civil Twilight 6:05 AM MST 5:29 PM MST
Nautical Twilight 5:35 AM MST 6:00 PM MST
Astronomical Twilight 5:05 AM MST 6:30 PM MST
Moon No Moon Rise 1:01 PM MST (11/7)
Length of Visible Light 11h 23m
Length of Day
10h 30m
Last Quarter, 42% of the Moon is Illuminated
Nov 7
Last Quarter
Nov 13
New
Nov 20
First Quarter
Nov 28
Full
Dec 6
Last Quarter

Hourly Weather History & Observations

Time (MST) Temp. Dew Point Humidity Pressure Visibility Wind Dir Wind Speed Gust Speed Precip Events Conditions
12:53 AM - - N/A% 30.30 in - North - - N/A   Unknown
1:53 AM - - N/A% 30.30 in - North - - N/A   Unknown
2:53 AM - - N/A% 30.29 in - North - - N/A   Unknown
3:53 AM - - N/A% 30.28 in - North - - N/A   Unknown
4:53 AM - - N/A% 30.29 in - North - - N/A   Unknown
5:53 AM - - N/A% 30.29 in - North - - N/A   Unknown
6:53 AM - - N/A% 30.29 in - North - - N/A   Unknown
7:53 AM - - N/A% 30.29 in - North - - N/A   Unknown
8:53 AM - - N/A% 30.29 in - North - - N/A   Unknown
9:53 AM 54.0 °F 18.0 °F 24% 30.28 in 10.0 mi North 11.5 mph - N/A   Unknown
10:53 AM 60.1 °F 18.0 °F 20% 30.26 in 10.0 mi North 6.9 mph - N/A   Clear
11:53 AM 64.9 °F 16.0 °F 15% 30.22 in 10.0 mi WSW 10.4 mph - N/A   Clear
12:53 PM 66.0 °F 17.1 °F 15% 30.18 in 10.0 mi SW 10.4 mph - N/A   Clear
1:53 PM 66.9 °F 17.1 °F 15% 30.16 in 10.0 mi West 5.8 mph - N/A   Clear
2:53 PM 68.0 °F 16.0 °F 14% 30.14 in 10.0 mi SW 10.4 mph - N/A   Clear
3:53 PM 68.0 °F 15.1 °F 13% 30.13 in 10.0 mi WSW 13.8 mph 21.9 mph N/A   Clear
4:53 PM 63.0 °F 15.1 °F 16% 30.12 in 10.0 mi SW 8.1 mph - N/A   Clear
5:53 PM 55.0 °F 14.0 °F 20% 30.13 in 10.0 mi Calm Calm - N/A   Clear
6:53 PM 54.0 °F 15.1 °F 22% 30.14 in 10.0 mi WNW 4.6 mph - N/A   Clear
7:53 PM 50.0 °F 14.0 °F 24% 30.15 in 10.0 mi North 4.6 mph - N/A   Clear
8:53 PM 48.0 °F 15.1 °F 27% 30.15 in 10.0 mi NNW 5.8 mph - N/A   Clear
9:53 PM 48.9 °F 16.0 °F 27% 29.98 in 10.0 mi North 4.6 mph - N/A   Clear
10:53 PM 46.0 °F 15.1 °F 29% 29.96 in 10.0 mi Calm Calm - N/A   Clear
11:53 PM 35.1 °F 14.0 °F 42% 29.98 in 10.0 mi Calm Calm - N/A   Clear